"Pseudo-MPEC" for P12hQkG

Created 2025 Dec 5 22:35:05 UT using Find_Orb

Click here for an explanation of pseudo-MPECs

 
 Astrometry: 
     P12hQkG* C2025 11 26.41672704 30 27.752-22 29 44.80   ~BQDZ 21.69wXNEOCPF51
     P12hQkG  C2025 11 26.42791404 30 26.628-22 29 34.63   ~BQDZ 22.61wXNEOCPF51
     P12hQkG  C2025 11 26.43911004 30 25.523-22 29 24.10   ~BQDZ 22.35wXNEOCPF51
     P12hQkG  C2025 11 26.57350504 30 12.159-22 27 13.99   ~BQIK 22.67GVNEOCPF51
     P12hQkG  C2025 11 26.57415304 30 12.080-22 27 13.29   ~BQIK 21.78GVNEOCPF51
     P12hQkG KC2025 11 27.27850104 29 05.395-22 15 47.45   ~BR7K 22.18GVNEOCPV06
     P12hQkG KC2025 11 27.28431604 29 04.794-22 15 41.72   ~BR7K 21.91GVNEOCPV06
     P12hQkG KC2025 11 27.29013004 29 04.200-22 15 36.14   ~BR7K       VNEOCPV06
     P12hQkG KC2025 11 27.29594404 29 03.631-22 15 30.28   ~BR7K 22.03GVNEOCPV06

Station data:
(F51) Pan-STARRS 1, Haleakala  (N20.707234 W156.255910)  US/Hawaii.
   Observers J. Herman, T. Lowe, P. Minguez, A. Schultz, I. Smith. Measurers
   K. Chambers, T. de Boer, J. Fairlamb, H. Gao, M. Huber, C.-C. Lin, E.
   Magnier, Y. Ramanjooloo, R. Wainscoat, R. Weryk. 1.8-m Ritchey-Chrétien +
   CCD.
(V06) Catalina Sky Survey-Kuiper  (N32.416871 W110.732550)  US/Arizona.
   Measurers T. Beuden, V. F. Carvajal, D. Fay, J. B. Fazekas, D. C. Fuls, A.
   R. Gibbs, A. D. Grauer, H. Gröller, J. K. Hogan, R. A. Kowalski, S. M.
   Larson, G. J. Leonard, D. Rankin, R. L. Seaman, F. C. Shelly, K. W.
   Wierzchoś. 1.55-m reflector + CCD.

Orbital elements:  P12hQkG
   Perihelion 2026 Feb 23.842818 +/- 108 TT = 20:13:39.4 (JD 2461095.342818)
Epoch 2025 Nov 27.0 TT = JDT 2461006.5   Earth MOID: 0.6528   Ma: 0.0351
M 330.102511947 +/- 38              (J2000 ecliptic)             AutoNEOCP
n   0.336521158 +/- 0.048           Peri.    2.360099 +/- 60
a   2.047046927 +/- 0.195           Node   100.706502 +/- 5.8
e   0.20084931 +/- 0.119            Incl.   31.116749 +/- 2.1
P   2.92881                H 20.32  G  0.15   U 10.7  SR
q 1.635898951 +/- 0.149    Q 2.458194904 +/- 0.494
From 9 observations 2025 Nov. 26-27 (21.1 hr); mean residual 0".21
Residuals in arcseconds: 
251126 F51  .19+  .24+    251126 F51  .18-  .13+    251127 V06  .13+  .01-    
251126 F51  .06+  .20-    251126 F51  .39-  .20+    251127 V06  .06-  .20-    
251126 F51  .21+  .32-    251127 V06  .43+  .03+    251127 V06  .10+  .12-    

Ephemerides (geocentric):
Date (UTC) HH   RA             Dec           delta  r     elong  mag " sig PA
---- --------  ------------   ------------  ------ ------ -----  --- --------
2025 12 05 23  04 15 07.019   -19 19 43.23  .84155 1.7029 137.4 22.2  638  42
2025 12 06 00  04 15 03.046   -19 18 43.55  .84149 1.7029 137.4 22.2  644  42
2025 12 06 01  04 14 59.075   -19 17 43.79  .84143 1.7028 137.4 22.2  650  42
2025 12 06 02  04 14 55.104   -19 16 43.94  .84137 1.7027 137.4 22.2  656  42
2025 12 06 03  04 14 51.135   -19 15 44.01  .84131 1.7027 137.4 22.2  662  42
2025 12 06 04  04 14 47.167   -19 14 44.00  .84125 1.7026 137.4 22.2  668  41
2025 12 06 05  04 14 43.200   -19 13 43.91  .84119 1.7025 137.4 22.2  674  41
2025 12 06 06  04 14 39.235   -19 12 43.73  .84113 1.7025 137.4 22.2  681  41
2025 12 06 07  04 14 35.271   -19 11 43.47  .84107 1.7024 137.4 22.2  687  41
2025 12 06 08  04 14 31.308   -19 10 43.13  .84101 1.7023 137.4 22.2  693  41
2025 12 06 09  04 14 27.346   -19 09 42.71  .84095 1.7023 137.4 22.2  699  41
2025 12 06 10  04 14 23.386   -19 08 42.20  .84089 1.7022 137.4 22.2  706  41
2025 12 06 11  04 14 19.427   -19 07 41.62  .84084 1.7022 137.4 22.2  712  41
2025 12 06 12  04 14 15.469   -19 06 40.95  .84078 1.7021 137.4 22.2  718  41
2025 12 06 13  04 14 11.513   -19 05 40.19  .84072 1.7020 137.4 22.2  725  41
2025 12 06 14  04 14 07.558   -19 04 39.36  .84066 1.7020 137.4 22.2  731  41
2025 12 06 15  04 14 03.605   -19 03 38.44  .84061 1.7019 137.4 22.2  738  41
2025 12 06 16  04 13 59.653   -19 02 37.45  .84055 1.7018 137.4 22.2  744  41
2025 12 06 17  04 13 55.702   -19 01 36.37  .84050 1.7018 137.4 22.2  751  41
2025 12 06 18  04 13 51.753   -19 00 35.20  .84044 1.7017 137.4 22.2  757  41
2025 12 06 19  04 13 47.805   -18 59 33.96  .84039 1.7016 137.4 22.2  764  41
2025 12 06 20  04 13 43.858   -18 58 32.64  .84033 1.7016 137.4 22.2  770  41
2025 12 06 21  04 13 39.913   -18 57 31.23  .84028 1.7015 137.4 22.2  777  41
2025 12 06 22  04 13 35.970   -18 56 29.74  .84022 1.7014 137.4 22.2  783  41
2025 12 06 23  04 13 32.027   -18 55 28.17  .84017 1.7014 137.4 22.2  790  41
2025 12 07 00  04 13 28.087   -18 54 26.52  .84012 1.7013 137.4 22.2  797  41
2025 12 07 01  04 13 24.148   -18 53 24.79  .84006 1.7012 137.4 22.2  804  41
2025 12 07 02  04 13 20.210   -18 52 22.98  .84001 1.7012 137.4 22.2  810  41
2025 12 07 03  04 13 16.274   -18 51 21.08  .83996 1.7011 137.4 22.2  817  41
2025 12 07 04  04 13 12.339   -18 50 19.11  .83991 1.7010 137.4 22.2  824  41
2025 12 07 05  04 13 08.406   -18 49 17.05  .83986 1.7010 137.4 22.2  831  41
2025 12 07 06  04 13 04.474   -18 48 14.91  .83980 1.7009 137.4 22.2  838  41
2025 12 07 07  04 13 00.544   -18 47 12.69  .83975 1.7008 137.4 22.2  845  41
2025 12 07 08  04 12 56.615   -18 46 10.39  .83970 1.7008 137.4 22.2  852  41
2025 12 07 09  04 12 52.688   -18 45 08.01  .83965 1.7007 137.3 22.2  858  41
2025 12 07 10  04 12 48.762   -18 44 05.55  .83960 1.7006 137.3 22.2  865  41
2025 12 07 11  04 12 44.838   -18 43 03.01  .83956 1.7006 137.3 22.2  872  41
2025 12 07 12  04 12 40.916   -18 42 00.39  .83951 1.7005 137.3 22.2  880  41
2025 12 07 13  04 12 36.995   -18 40 57.69  .83946 1.7004 137.3 22.2  887  41
2025 12 07 14  04 12 33.076   -18 39 54.90  .83941 1.7004 137.3 22.2  894  41
2025 12 07 15  04 12 29.159   -18 38 52.04  .83936 1.7003 137.3 22.2  901  41
2025 12 07 16  04 12 25.243   -18 37 49.09  .83931 1.7003 137.3 22.2  908  41
2025 12 07 17  04 12 21.328   -18 36 46.07  .83927 1.7002 137.3 22.2  915  41
2025 12 07 18  04 12 17.416   -18 35 42.97  .83922 1.7001 137.3 22.2  922  41
2025 12 07 19  04 12 13.505   -18 34 39.78  .83917 1.7001 137.3 22.2  930  41
2025 12 07 20  04 12 09.595   -18 33 36.52  .83913 1.7000 137.3 22.2  937  41
2025 12 07 21  04 12 05.688   -18 32 33.17  .83908 1.6999 137.3 22.2  944  41
2025 12 07 22  04 12 01.782   -18 31 29.75  .83904 1.6999 137.3 22.2  952  41